[[{"header":{"parameterUnit":"m.s-1","parameterCategory":1,"la1":30.2991,"la2":30.254,"lo1":-89.0895,"lo2":-89.0444,"dy":0.0017,"dx":0.0017,"nx":28,"ny":28,"refTime":"2023-08-01T21:00:00:Z","depth":0,"parameterNumber":2,"parameterNumberName":"U-component_of_WINDS"},"data":[0,0,0,0,0,0,0,0,0,0,0,0,0,0,0,0,0,0,0,0,0,0,0,0,0,0,0,0,0,0,0,0,0,0,0,0,0,0,0,0,0,0,0,0,0,0,0,0,0,0,0,0,0,0,0,0,0,0,3.1038,3.1039,0,3.1135,3.1137,3.1138,3.1076,3.1073,3.107,3.1068,3.1164,3.1169,3.1175,0,0,0,0,0,0,0,0,0,0,0,0,0,3.0797,3.0801,3.1038,3.1039,3.1041,3.1135,3.1137,3.1138,3.1077,3.1073,3.107,3.1066,3.1163,3.1169,3.1175,0,0,0,0,0,0,0,0,0,0,0,0,0,3.0898,3.0803,3.1038,3.1022,3.1021,3.1135,3.1137,3.1138,3.1077,3.1073,3.1069,3.1065,3.1161,3.1168,3.1176,3.1311,0,0,3.12,3.1203,0,0,0,0,0,0,0,0,3.0893,3.0907,3.1023,3.1023,3.1023,3.1089,3.1087,3.1196,3.1079,3.1056,3.1068,3.1063,3.1143,3.1152,3.1179,3.1315,3.1319,3.1201,3.1205,3.1209,3.1211,0,0,0,0,0,0,0,3.0886,3.0903,3.1077,3.1025,3.1024,3.1008,3.1018,3.1107,3.1122,3.1058,3.1053,3.1066,3.1142,3.1172,3.1181,3.1321,3.12,3.1207,3.1212,3.1215,3.157,3.1575,0,0,0,0,0,0,3.088,3.0897,3.1073,3.1079,3.0946,3.1016,3.1027,3.1072,3.1121,3.1124,3.1069,3.1063,3.1161,3.1172,3.1184,3.1344,3.1209,3.1216,3.1221,3.1566,3.1572,3.1577,0,0,0,0,0,0,3.0876,3.0897,3.107,3.0987,3.1008,3.1025,3.1076,3.1076,3.1106,3.113,3.1132,3.1098,3.1158,3.1173,3.128,3.1347,3.122,3.1227,3.156,3.1568,3.1574,3.1666,0,0,0,0,0,0,3.0869,3.0895,3.0947,3.0989,3.1013,3.1165,3.108,3.1081,3.1121,3.1113,3.1157,3.116,3.1155,3.1268,3.1287,3.1355,3.1233,3.1554,3.1563,3.1572,3.1657,3.1675,3.1691,0,0,0,0,0,3.086,3.0969,3.095,3.0972,3.1078,3.1169,3.1182,3.1175,3.1126,3.1178,3.1193,3.1159,3.1337,3.128,3.1301,3.1372,3.155,3.1561,3.1571,3.1649,3.1672,3.1691,0,0,0,0,0,0,3.0934,3.0974,3.0954,3.108,3.1121,3.1158,3.1223,3.1199,3.1255,3.1245,3.1233,3.1244,3.1355,3.1374,3.131,3.1504,3.1435,3.1451,3.1488,3.1509,3.1526,3.1518,3.1239,0,0,0,0,0,3.0965,3.1036,3.1067,3.1174,3.1197,3.1207,3.1246,3.1237,3.1279,3.1296,3.1319,3.136,3.1425,3.1468,3.1529,3.166,3.1668,3.1719,3.1736,3.175,3.1763,3.1832,3.1855,3.1611,3.1611,3.1611,0,0,3.103,3.106,3.1105,3.119,3.1221,3.1294,3.1222,3.1302,3.1355,3.1308,3.141,3.1428,3.1473,3.1592,3.1646,3.1612,3.1832,3.1763,3.1774,3.178,3.1846,3.1869,3.1889,3.1619,3.1617,3.1616,0,0,3.1184,3.1215,3.1308,3.1341,3.1389,3.1395,3.1417,3.1458,3.1469,3.1571,3.1537,3.16,3.1712,3.1746,3.1777,3.1945,3.1915,3.1965,3.2053,3.2121,3.214,3.2157,3.2216,3.2237,3.1978,3.1978,3.1978,0,3.1258,3.1367,3.1358,3.1441,3.1479,3.144,3.1533,3.1565,3.1631,3.1657,3.1619,3.1759,3.1787,3.1912,3.1953,3.1981,3.2005,3.1959,3.2138,3.2155,3.2171,3.2227,3.2249,3.1984,3.1983,3.1983,3.1982,0,3.1454,3.153,3.1599,3.1665,3.171,3.1798,3.1802,3.1848,3.1836,3.1845,3.1949,3.1982,3.2048,3.2077,3.2066,3.2202,3.2179,3.214,3.207,3.22,3.2252,3.2273,3.1992,3.199,3.1988,3.1987,0,0,3.1658,3.1717,3.1743,3.1772,3.1822,3.188,3.1966,3.2032,3.2072,3.2118,3.2189,3.2285,3.2249,3.2285,3.2276,3.2336,3.2465,3.2289,3.229,3.232,3.2615,3.2644,3.2669,3.2446,3.245,3.2453,3.2611,0,3.1815,3.1965,3.1959,3.2099,3.2168,3.2132,3.2206,3.2245,3.2256,3.2316,3.2328,3.2396,3.2344,3.2365,3.2423,3.2437,3.2524,3.2426,3.251,3.2513,3.2499,3.2696,3.2727,3.2875,3.2632,3.2635,3.2638,0,3.2018,3.2072,3.2219,3.2258,3.2287,3.2354,3.2414,3.2472,3.2514,3.2518,3.2559,3.254,3.2625,3.2554,3.2671,3.2604,3.2638,3.265,3.2656,3.2663,3.2583,3.2708,3.2922,3.2944,3.267,3.2667,3.2665,0,3.215,3.226,3.2362,3.2387,3.2437,3.2484,3.2507,3.2545,3.2585,3.2637,3.2662,3.2723,3.2757,3.2804,3.2802,3.275,3.2919,3.2848,3.2924,3.2924,3.296,3.2958,3.3182,3.2984,3.2984,3.2983,3.2983,0,3.2326,3.2417,3.2422,3.2484,3.2585,3.2577,3.2676,3.2694,3.2728,3.2792,3.2765,3.2826,3.282,3.2881,3.288,3.2976,3.2991,3.2996,3.2994,3.2998,3.2997,3.3019,3.3009,3.2989,3.2988,3.2987,3.2986,0,3.2491,3.2498,3.2607,3.2644,3.2656,3.2728,3.276,3.2818,3.2827,3.2909,3.2928,3.2941,3.3011,3.3014,3.3095,3.3094,3.3211,3.3198,3.3197,3.3194,3.3269,3.3262,3.3515,3.3548,3.3329,3.3331,3.3333,0,3.2602,3.2671,3.2717,3.2758,3.2784,3.2851,3.2892,3.2887,3.293,3.2983,3.3035,3.3103,3.3157,3.3271,3.3287,3.3348,3.3336,3.3421,3.3345,3.3346,3.3336,3.3332,3.3338,3.3435,3.3438,3.344,3.3441,0,3.2799,3.2799,3.2859,3.2921,3.297,3.3018,3.3062,3.3098,3.3098,3.3147,3.3219,3.3261,3.3344,3.3411,3.3471,3.3492,3.3467,3.3465,3.3486,3.349,3.3486,3.3488,3.3236,3.3459,3.3457,3.3456,3.3455,3.3454,3.294,3.2999,3.304,3.3108,3.3141,3.3183,3.324,3.3256,3.3316,3.3383,3.3376,3.3456,3.3495,3.3573,3.36,3.3661,3.3632,3.3662,3.3669,3.3676,3.3684,3.3477,3.3672,3.3671,3.3671,3.367,3.367,0,3.3134,3.3158,3.3221,3.3284,3.3337,3.331,3.3357,3.3403,3.3474,3.3513,3.3567,3.3649,3.3714,3.3735,3.3798,3.3843,3.3833,3.3859,3.3856,3.3861,3.3707,3.3683,3.3867,3.3867,3.3867,3.3866,3.3866,3.3866,3.3241,3.334,3.3345,3.3459,3.3483,3.3561,3.3591,3.3629,3.366,3.3754,3.3808,3.3822,3.3854,3.3918,3.3976,3.398,3.4004,3.4036,3.4036,3.3891,3.3872,3.3853,3.383,3.4041,3.4042,3.4184,3.4185,3.4186]},{"header":{"parameterUnit":"m.s-1","parameterCategory":1,"la1":30.2991,"la2":30.254,"lo1":-89.0895,"lo2":-89.0444,"dy":0.0017,"dx":0.0017,"nx":28,"ny":28,"refTime":"2023-08-01T21:00:00:Z","depth":0,"parameterNumber":3,"parameterNumberName":"V-component_of_WINDS"},"data":[0,0,0,0,0,0,0,0,0,0,0,0,0,0,0,0,0,0,0,0,0,0,0,0,0,0,0,0,0,0,0,0,0,0,0,0,0,0,0,0,0,0,0,0,0,0,0,0,0,0,0,0,0,0,0,0,0,0,-0.292,-0.292,0,-0.2909,-0.2909,-0.2909,-0.2923,-0.2924,-0.2924,-0.2925,-0.291,-0.2909,-0.2908,0,0,0,0,0,0,0,0,0,0,0,0,0,-0.2952,-0.2951,-0.292,-0.292,-0.292,-0.2909,-0.2909,-0.2909,-0.2923,-0.2924,-0.2924,-0.2925,-0.291,-0.2909,-0.2908,0,0,0,0,0,0,0,0,0,0,0,0,0,-0.2939,-0.2951,-0.292,-0.2926,-0.2926,-0.2909,-0.2909,-0.2909,-0.2923,-0.2924,-0.2924,-0.2925,-0.2911,-0.291,-0.2908,-0.2885,0,0,-0.2904,-0.2904,0,0,0,0,0,0,0,0,-0.294,-0.2938,-0.2925,-0.2925,-0.2926,-0.2918,-0.2915,-0.2901,-0.2923,-0.2924,-0.2925,-0.2925,-0.2912,-0.2911,-0.2907,-0.2884,-0.2883,-0.2904,-0.2903,-0.2903,-0.2902,0,0,0,0,0,0,0,-0.2941,-0.2939,-0.2916,-0.2925,-0.2925,-0.2928,-0.2927,-0.2913,-0.2914,-0.2924,-0.2925,-0.2924,-0.2912,-0.2908,-0.2907,-0.2883,-0.2904,-0.2903,-0.2902,-0.2902,-0.2842,-0.2842,0,0,0,0,0,0,-0.2941,-0.2939,-0.2916,-0.2916,-0.2935,-0.2927,-0.2926,-0.292,-0.2914,-0.2914,-0.2923,-0.2924,-0.291,-0.2908,-0.2906,-0.2879,-0.2903,-0.2902,-0.2901,-0.2843,-0.2842,-0.2841,0,0,0,0,0,0,-0.2942,-0.2939,-0.2917,-0.2928,-0.2925,-0.2926,-0.2919,-0.2919,-0.2915,-0.2913,-0.2913,-0.2918,-0.291,-0.2908,-0.2891,-0.2879,-0.2901,-0.29,-0.2844,-0.2843,-0.2842,-0.2824,0,0,0,0,0,0,-0.2943,-0.2939,-0.293,-0.2928,-0.2925,-0.2901,-0.2918,-0.2919,-0.2913,-0.2915,-0.2909,-0.2909,-0.2911,-0.2892,-0.2889,-0.2877,-0.2899,-0.2845,-0.2844,-0.2842,-0.2826,-0.2823,-0.282,0,0,0,0,0,-0.2944,-0.2925,-0.293,-0.2927,-0.2914,-0.2901,-0.2899,-0.2903,-0.2912,-0.2903,-0.2903,-0.2909,-0.2881,-0.2891,-0.2887,-0.2875,-0.2846,-0.2844,-0.2842,-0.2827,-0.2823,-0.282,0,0,0,0,0,0,-0.2924,-0.2924,-0.293,-0.2909,-0.2905,-0.2903,-0.2892,-0.2898,-0.289,-0.2892,-0.2896,-0.2895,-0.2876,-0.2874,-0.2885,-0.2853,-0.2865,-0.2862,-0.2855,-0.2851,-0.2848,-0.2848,-0.2898,0,0,0,0,0,-0.2918,-0.2908,-0.2909,-0.289,-0.2888,-0.2891,-0.2885,-0.2889,-0.2884,-0.2882,-0.288,-0.2874,-0.2865,-0.2858,-0.2848,-0.2826,-0.2825,-0.2816,-0.2813,-0.2811,-0.2808,-0.2797,-0.2793,-0.2836,-0.2836,-0.2836,0,0,-0.2904,-0.2903,-0.2896,-0.2887,-0.2884,-0.2873,-0.2889,-0.2876,-0.2869,-0.288,-0.2863,-0.2862,-0.2856,-0.2837,-0.2828,-0.2834,-0.2797,-0.2808,-0.2806,-0.2805,-0.2795,-0.2791,-0.2787,-0.2834,-0.2835,-0.2835,0,0,-0.2873,-0.2871,-0.2857,-0.2854,-0.2851,-0.2853,-0.2849,-0.2847,-0.2847,-0.2831,-0.284,-0.2831,-0.2813,-0.2809,-0.2805,-0.2776,-0.2782,-0.2773,-0.2757,-0.2746,-0.2743,-0.274,-0.273,-0.2726,-0.2771,-0.2771,-0.2771,0,-0.2856,-0.2841,-0.2848,-0.2836,-0.2832,-0.2844,-0.2829,-0.2826,-0.2819,-0.2815,-0.2823,-0.2803,-0.28,-0.278,-0.2774,-0.277,-0.2766,-0.2773,-0.2743,-0.274,-0.2737,-0.2728,-0.2724,-0.277,-0.277,-0.277,-0.277,0,-0.282,-0.281,-0.2799,-0.2794,-0.2788,-0.2775,-0.278,-0.2774,-0.2779,-0.278,-0.2765,-0.2762,-0.2753,-0.2749,-0.2753,-0.2731,-0.2735,-0.2743,-0.2755,-0.2732,-0.2723,-0.272,-0.2768,-0.2768,-0.2769,-0.2769,0,0,-0.2774,-0.2775,-0.2771,-0.277,-0.2768,-0.276,-0.2748,-0.2741,-0.2736,-0.2731,-0.2721,-0.2708,-0.2716,-0.2711,-0.2715,-0.2706,-0.2684,-0.2715,-0.2715,-0.2709,-0.266,-0.2654,-0.2649,-0.2689,-0.2688,-0.2688,-0.2661,0,-0.2743,-0.2723,-0.273,-0.2709,-0.2701,-0.2713,-0.2703,-0.2701,-0.2702,-0.2695,-0.2697,-0.2687,-0.2699,-0.2696,-0.2688,-0.2689,-0.2674,-0.2691,-0.2679,-0.2679,-0.2679,-0.2645,-0.2637,-0.2612,-0.2657,-0.2657,-0.2656,0,-0.2704,-0.27,-0.2679,-0.2681,-0.2677,-0.2668,-0.2663,-0.2656,-0.2654,-0.2656,-0.2653,-0.2659,-0.2648,-0.2662,-0.2646,-0.2657,-0.2653,-0.2653,-0.2652,-0.265,-0.2665,-0.2641,-0.2604,-0.26,-0.2651,-0.2651,-0.2652,0,-0.2673,-0.2662,-0.2649,-0.2647,-0.2649,-0.2642,-0.2642,-0.2641,-0.2637,-0.2633,-0.2631,-0.2625,-0.2621,-0.2617,-0.2622,-0.2631,-0.2606,-0.2619,-0.2607,-0.2606,-0.2599,-0.2599,-0.256,-0.2598,-0.2598,-0.2598,-0.2598,0,-0.2637,-0.2623,-0.2635,-0.2626,-0.2612,-0.2621,-0.2606,-0.2608,-0.2608,-0.26,-0.261,-0.2602,-0.261,-0.2603,-0.2607,-0.2594,-0.2592,-0.2593,-0.2594,-0.2592,-0.2592,-0.2588,-0.259,-0.2597,-0.2597,-0.2597,-0.2598,0,-0.2598,-0.2605,-0.2592,-0.2596,-0.2596,-0.2586,-0.2589,-0.2581,-0.2585,-0.2575,-0.2573,-0.2578,-0.2571,-0.2577,-0.2568,-0.2571,-0.2554,-0.2558,-0.2555,-0.2556,-0.2542,-0.2544,-0.2498,-0.2493,-0.2535,-0.2535,-0.2535,0,-0.2575,-0.2565,-0.2569,-0.2565,-0.2565,-0.2559,-0.2555,-0.2565,-0.2561,-0.256,-0.2552,-0.2546,-0.2542,-0.253,-0.2532,-0.2527,-0.253,-0.2515,-0.2529,-0.2528,-0.253,-0.253,-0.253,-0.2512,-0.2511,-0.2511,-0.2511,0,-0.2532,-0.2537,-0.2532,-0.253,-0.2526,-0.2524,-0.2522,-0.2519,-0.2528,-0.2524,-0.2517,-0.2514,-0.2507,-0.2501,-0.2498,-0.2498,-0.2505,-0.2507,-0.2503,-0.25,-0.2499,-0.2499,-0.2546,-0.2507,-0.2507,-0.2508,-0.2508,-0.2508,-0.25,-0.2493,-0.2495,-0.249,-0.2491,-0.249,-0.2483,-0.2488,-0.2483,-0.2479,-0.2485,-0.2477,-0.2478,-0.2474,-0.2473,-0.2467,-0.2473,-0.2468,-0.2467,-0.2466,-0.2464,-0.2501,-0.2466,-0.2467,-0.2467,-0.2467,-0.2467,0,-0.2458,-0.2461,-0.2456,-0.2455,-0.2452,-0.2462,-0.2462,-0.2458,-0.2451,-0.2452,-0.2448,-0.2442,-0.2437,-0.244,-0.2436,-0.2431,-0.2435,-0.2429,-0.2429,-0.2429,-0.2458,-0.2462,-0.2427,-0.2427,-0.2427,-0.2427,-0.2427,-0.2427,-0.2435,-0.2424,-0.2429,-0.2419,-0.2422,-0.2415,-0.2414,-0.2414,-0.2414,-0.2407,-0.2404,-0.2407,-0.2409,-0.2406,-0.2402,-0.2403,-0.2401,-0.2394,-0.2397,-0.2423,-0.2427,-0.2431,-0.2434,-0.2394,-0.2394,-0.2368,-0.2368,-0.2368]}]]